This demonstration page uses our WeatherBlox Daily Observations layout. Learn more.

Left ArrowRight Arrow

Hourly Observations for April 28, 2017

Temp ( °F °C ) Dew Point ( °F °C ) Humidity (%) Winds ( mph kmh ) Pressure ( in mb ) Visibility ( mi km ) Precip ( " mm )
12:59 am 00:59 Mostly Cloudy 73 22.8 63 17.2 71 71 SSW 10 17 29.94 1014 10 16 0.00 0.00
1:59 am 01:59 Mostly Cloudy 73 22.8 63 17.2 71 71 SSW 7 11 29.93 1014 10 16 0.00 0.00
2:59 am 02:59 Mostly Cloudy 72 22.2 63 17.2 73 73 S 8 13 29.94 1014 10 16 0.00 0.00
3:59 am 03:59 Mostly Cloudy 72 22.2 64 17.8 76 76 S 9 15 29.95 1014 10 16 0.00 0.00
4:59 am 04:59 Mostly Cloudy 72 22.2 64 17.8 76 76 SSW 8 13 29.96 1015 10 16 0.00 0.00
5:23 am 05:23 Cloudy with Thunderstorms 72 22.2 65 18.3 79 79 SSW 9 15 29.97 1015 9 14 0.00 0.00
5:36 am 05:36 Cloudy with Thunderstorms 72 22.2 65 18.3 79 79 SW 8 13 30.00 1016 7 11 0.01 0.25
5:59 am 05:59 Cloudy with Thunderstorms 70 21.1 67 19.4 90 90 Calm 30.00 1016 3 4 0.08 2.03
6:10 am 06:10 Cloudy with Thunderstorms 70 21.1 67 19.4 90 90 SSW 6 9 30.00 1016 1 2 0.13 3.30
6:15 am 06:15 Cloudy with Strong Thunderstorms 70 21.1 67 19.4 90 90 SSW 9 15 30.00 1016 1 1 0.26 6.60
6:21 am 06:21 Cloudy with Thunderstorms 71 21.7 67 19.4 87 87 SW 9 15 30.00 1016 1 2 0.29 7.37
6:25 am 06:25 Cloudy with Thunderstorms 71 21.7 67 19.4 87 87 SW 9 15 30.00 1016 2 3 0.31 7.87
6:30 am 06:30 Cloudy with Strong Thunderstorms 71 21.7 67 19.4 87 87 SSW 7 11 30.00 1016 2 2 0.38 9.65
6:41 am 06:41 Cloudy with Strong Thunderstorms 71 21.7 68 20 90 90 SW 3 6 30.03 1017 2 3 0.44 11.18
6:50 am 06:50 Cloudy with Thunderstorms 71 21.7 68 20 90 90 S 5 7 30.00 1016 4 6 0.44 11.18
6:59 am 06:59 Cloudy with Thunderstorms 71 21.7 68 20 90 90 S 6 9 30.01 1016 4 6 0.45 11.43
7:11 am 07:11 Cloudy with Mist and Fog 71 21.7 68 20 90 90 S 5 7 30.03 1017 5 8 0.00 0.00
7:23 am 07:23 Cloudy with Thunderstorms 71 21.7 68 20 90 90 S 6 9 30.03 1017 4 6 0.00 0.00
7:59 am 07:59 Cloudy with Mist and Fog 72 22.2 69 20.6 91 91 S 6 9 30.04 1017 5 8 0.00 0.00
8:59 am 08:59 Partly Cloudy with Mist and Fog 75 23.9 71 21.7 88 88 SSW 8 13 30.04 1017 6 10 0.00 0.00
9:37 am 09:37 Mostly Cloudy with Mist and Fog 75 23.9 71 21.7 88 88 SW 8 13 30.06 1018 6 10 0.00 0.00
9:59 am 09:59 Cloudy with Haze 76 24.4 71 21.7 85 85 SSW 7 11 30.06 1018 6 10 0.00 0.00
10:59 am 10:59 Mostly Cloudy 78 25.6 70 21.1 76 76 W 8 13 30.07 1018 7 11 0.00 0.00
11:13 am 11:13 Mostly Cloudy 79 26.1 70 21.1 74 74 W 9 15 30.09 1019 7 11 0.00 0.00
11:59 am 11:59 Mostly Cloudy 79 26.1 70 21.1 74 74 W 7 11 30.08 1019 7 11 0.00 0.00
12:59 pm 12:59 Partly Cloudy 82 27.8 71 21.7 69 69 SW 8 13 30.07 1018 8 13 0.00 0.00
1:59 pm 13:59 Partly Cloudy 84 28.9 69 20.6 61 61 VRB 3 6 30.06 1018 8 13 0.00 0.00
2:59 pm 14:59 Partly Cloudy 85 29.4 68 20 57 57 W 6 9 30.06 1018 8 13 0.00 0.00
3:59 pm 15:59 Partly Cloudy 85 29.4 68 20 57 57 VRB 5 7 30.04 1017 8 13 0.00 0.00
4:59 pm 16:59 Partly Cloudy 82 27.8 69 20.6 65 65 NE 6 9 30.04 1017 7 11 0.00 0.00
5:59 pm 17:59 Mostly Sunny 84 28.9 70 21.1 63 63 VRB 3 6 30.04 1017 7 11 0.00 0.00
6:59 pm 18:59 Mostly Sunny 84 28.9 67 19.4 57 57 SW 8 13 30.04 1017 7 11 0.00 0.00
7:59 pm 19:59 Mostly Clear 81 27.2 67 19.4 62 62 SW 5 7 30.05 1018 7 11 0.00 0.00
8:59 pm 20:59 Mostly Clear 79 26.1 68 20 69 69 SSW 5 7 30.05 1018 8 13 0.00 0.00
9:59 pm 21:59 Mostly Clear 80 26.7 72 22.2 76 76 VRB 5 7 30.09 1019 7 11 0.00 0.00
10:59 pm 22:59 Mostly Clear 79 26.1 73 22.8 82 82 VRB 6 9 30.09 1019 7 11 0.00 0.00
11:59 pm 23:59 Partly Cloudy 78 25.6 73 22.8 85 85 SSW 8 13 30.09 1019 7 11 0.00 0.00

Powered by AerisWeather